Satellite-Ground Cal/Val Site Overpasses Predictions

Prediction of Satellite NPP Overpassing Cal/Val Site: Antarctic Dome C

Ground Cal/Val Site Location: Latitude: -75.10, Longitude: 123.35; Satellite-Ground Site NADIR distance within 100 km.

Table of predicted overpasses for the next 14.0 days since TLE Epoch: 5/23/2014
Interval Starting Time Ending Time Minimum Distance Time Minimum Distance (km)
1 05/24/2014 14:54:47 05/24/2014 14:55:17 05/24/2014 14:55:02 5.69
2 05/26/2014 07:37:39 05/26/2014 07:38:08 05/26/2014 07:37:54 4.04
3 05/29/2014 15:01:10 05/29/2014 15:01:38 05/29/2014 15:01:24 30.78
4 05/30/2014 14:42:28 05/30/2014 14:42:46 05/30/2014 14:42:37 76.45
5 05/31/2014 07:44:02 05/31/2014 07:44:30 05/31/2014 07:44:16 32.28
6 06/01/2014 07:25:19 06/01/2014 07:25:37 06/01/2014 07:25:28 77.56
7 06/03/2014 15:07:37 06/03/2014 15:07:58 06/03/2014 15:07:48 67.70
8 06/04/2014 14:48:46 06/04/2014 14:49:12 06/04/2014 14:48:59 41.64
9 06/05/2014 07:50:28 06/05/2014 07:50:50 06/05/2014 07:50:39 67.31
